TimeEST,TemperatureF,Dew PointF,Humidity,Sea Level PressureIn,VisibilityMPH,Wind Direction,Wind SpeedMPH,Gust SpeedMPH,PrecipitationIn,Events,Conditions,WindDirDegrees,DateUTC
12:15 AM,27.3,26.2,96,30.03,10.0,Calm,Calm,-,N/A,,Clear,0,2013-12-02 05:15:00
12:35 AM,27.5,26.6,96,30.03,10.0,Calm,Calm,-,N/A,,Clear,0,2013-12-02 05:35:00
12:55 AM,27.3,26.4,96,30.02,7.0,Calm,Calm,-,N/A,,Clear,0,2013-12-02 05:55:00
1:15 AM,28.4,27.5,96,30.01,10.0,Calm,Calm,-,N/A,,Clear,0,2013-12-02 06:15:00
1:35 AM,26.8,25.5,95,30.01,7.0,Calm,Calm,-,N/A,,Clear,0,2013-12-02 06:35:00
1:55 AM,26.4,25.3,96,30.00,10.0,Calm,Calm,-,N/A,,Clear,0,2013-12-02 06:55:00
2:15 AM,25.9,25.0,96,29.99,7.0,Calm,Calm,-,N/A,,Clear,0,2013-12-02 07:15:00
2:35 AM,26.1,25.2,96,29.99,10.0,Calm,Calm,-,N/A,,Clear,0,2013-12-02 07:35:00
2:55 AM,26.4,25.7,97,29.99,10.0,Calm,Calm,-,N/A,,Clear,0,2013-12-02 07:55:00
3:15 AM,24.8,24.1,97,29.98,7.0,Calm,Calm,-,N/A,,Clear,0,2013-12-02 08:15:00
3:35 AM,25.0,24.1,96,29.97,7.0,Calm,Calm,-,N/A,,Clear,0,2013-12-02 08:35:00
3:55 AM,24.4,23.7,97,29.96,10.0,Calm,Calm,-,N/A,,Clear,0,2013-12-02 08:55:00
4:15 AM,25.3,24.4,96,29.96,10.0,Calm,Calm,-,N/A,,Clear,0,2013-12-02 09:15:00
4:35 AM,23.7,22.8,96,29.95,10.0,Calm,Calm,-,N/A,,Clear,0,2013-12-02 09:35:00
4:55 AM,23.9,23.2,97,29.95,10.0,Calm,Calm,-,N/A,,Clear,0,2013-12-02 09:55:00
5:15 AM,24.8,24.3,98,29.95,10.0,Calm,Calm,-,N/A,,Clear,0,2013-12-02 10:15:00
5:35 AM,23.9,23.2,97,29.95,10.0,Calm,Calm,-,N/A,,Clear,0,2013-12-02 10:35:00
5:55 AM,24.6,23.9,97,29.95,10.0,Calm,Calm,-,N/A,,Clear,0,2013-12-02 10:55:00
6:15 AM,24.1,23.2,96,29.95,10.0,Calm,Calm,-,N/A,,Clear,0,2013-12-02 11:15:00
6:35 AM,24.4,23.5,96,29.95,10.0,Calm,Calm,-,N/A,,Clear,0,2013-12-02 11:35:00
6:55 AM,23.9,23.0,96,29.94,10.0,Calm,Calm,-,N/A,,Clear,0,2013-12-02 11:55:00
7:15 AM,24.4,23.7,97,29.94,10.0,Calm,Calm,-,N/A,,Clear,0,2013-12-02 12:15:00
7:35 AM,23.7,22.8,96,29.94,10.0,Calm,Calm,-,N/A,,Clear,0,2013-12-02 12:35:00
7:55 AM,23.9,23.0,96,29.94,10.0,Calm,Calm,-,N/A,,Clear,0,2013-12-02 12:55:00
8:15 AM,25.9,25.0,96,29.94,10.0,Calm,Calm,-,N/A,,Clear,0,2013-12-02 13:15:00
8:35 AM,28.8,27.5,95,29.94,10.0,Calm,Calm,-,N/A,,Clear,0,2013-12-02 13:35:00
8:55 AM,31.8,29.7,92,29.94,10.0,Calm,Calm,-,N/A,,Clear,0,2013-12-02 13:55:00
9:15 AM,33.8,30.7,89,29.94,10.0,Calm,Calm,-,N/A,,Clear,0,2013-12-02 14:15:00
9:35 AM,36.5,32.0,84,29.94,10.0,Calm,Calm,-,N/A,,Clear,0,2013-12-02 14:35:00
9:55 AM,39.7,32.9,77,29.94,10.0,Calm,Calm,-,N/A,,Clear,0,2013-12-02 14:55:00
10:15 AM,41.9,33.3,71,29.94,10.0,Calm,Calm,-,N/A,,Scattered Clouds,0,2013-12-02 15:15:00
10:35 AM,44.6,34.0,66,29.93,10.0,Calm,Calm,-,N/A,,Mostly Cloudy,0,2013-12-02 15:35:00
10:55 AM,46.8,34.3,62,29.91,10.0,Calm,Calm,-,N/A,,Mostly Cloudy,0,2013-12-02 15:55:00
11:15 AM,48.2,34.9,60,29.91,10.0,Calm,Calm,-,N/A,,Mostly Cloudy,0,2013-12-02 16:15:00
11:35 AM,49.5,34.0,55,29.90,10.0,Calm,Calm,-,N/A,,Overcast,0,2013-12-02 16:35:00
11:55 AM,54.0,34.2,47,29.89,10.0,Calm,Calm,-,N/A,,Mostly Cloudy,0,2013-12-02 16:55:00
12:15 PM,54.9,34.2,46,29.89,10.0,Calm,Calm,-,N/A,,Scattered Clouds,0,2013-12-02 17:15:00
12:35 PM,56.1,33.3,42,29.88,10.0,Calm,Calm,-,N/A,,Scattered Clouds,0,2013-12-02 17:35:00
12:55 PM,55.9,33.8,43,29.88,10.0,Calm,Calm,-,N/A,,Mostly Cloudy,0,2013-12-02 17:55:00
1:15 PM,56.3,33.8,43,29.87,10.0,Calm,Calm,-,N/A,,Overcast,0,2013-12-02 18:15:00
1:35 PM,56.3,34.5,44,29.86,10.0,Calm,Calm,-,N/A,,Overcast,0,2013-12-02 18:35:00
1:55 PM,56.5,34.9,44,29.86,10.0,SW,3.5,-,N/A,,Overcast,230,2013-12-02 18:55:00
2:15 PM,56.3,34.5,44,29.85,10.0,Calm,Calm,-,N/A,,Overcast,0,2013-12-02 19:15:00
2:35 PM,56.5,34.5,44,29.85,10.0,Calm,Calm,-,N/A,,Overcast,0,2013-12-02 19:35:00
2:55 PM,56.7,34.7,44,29.84,10.0,Calm,Calm,-,N/A,,Overcast,0,2013-12-02 19:55:00
3:15 PM,56.3,34.9,45,29.84,10.0,Calm,Calm,-,N/A,,Overcast,0,2013-12-02 20:15:00
3:35 PM,56.3,35.1,45,29.84,10.0,Calm,Calm,-,N/A,,Overcast,0,2013-12-02 20:35:00
3:55 PM,56.1,35.4,46,29.84,10.0,Calm,Calm,-,N/A,,Overcast,0,2013-12-02 20:55:00
4:15 PM,55.9,36.3,48,29.84,10.0,Calm,Calm,-,N/A,,Overcast,0,2013-12-02 21:15:00
4:35 PM,53.2,39.7,60,29.85,10.0,Calm,Calm,-,N/A,,Overcast,0,2013-12-02 21:35:00
4:55 PM,51.6,41.0,67,29.85,10.0,Calm,Calm,-,N/A,,Overcast,0,2013-12-02 21:55:00
5:15 PM,49.6,40.8,72,29.85,10.0,Calm,Calm,-,N/A,,Overcast,0,2013-12-02 22:15:00
5:35 PM,48.2,42.1,79,29.85,10.0,Calm,Calm,-,N/A,,Overcast,0,2013-12-02 22:35:00
5:55 PM,48.7,41.0,75,29.85,10.0,Calm,Calm,-,N/A,,Overcast,0,2013-12-02 22:55:00
6:15 PM,46.8,40.5,79,29.86,10.0,Calm,Calm,-,N/A,,Overcast,0,2013-12-02 23:15:00
6:35 PM,45.9,40.3,81,29.86,10.0,Calm,Calm,-,N/A,,Overcast,0,2013-12-02 23:35:00
6:55 PM,45.5,39.9,81,29.86,10.0,Calm,Calm,-,N/A,,Overcast,0,2013-12-02 23:55:00
7:15 PM,45.5,39.2,79,29.86,10.0,Calm,Calm,-,N/A,,Overcast,0,2013-12-03 00:15:00
7:35 PM,44.6,39.0,81,29.86,10.0,Calm,Calm,-,N/A,,Overcast,0,2013-12-03 00:35:00
7:55 PM,44.1,39.2,83,29.86,10.0,Calm,Calm,-,N/A,,Overcast,0,2013-12-03 00:55:00
8:15 PM,43.5,38.8,84,29.87,10.0,Calm,Calm,-,N/A,,Overcast,0,2013-12-03 01:15:00
8:40 PM,44.1,38.3,80,29.87,7.0,Calm,Calm,-,N/A,,Overcast,0,2013-12-03 01:40:00
8:55 PM,43.5,38.5,82,29.87,10.0,Calm,Calm,-,N/A,,Overcast,0,2013-12-03 01:55:00
9:15 PM,42.8,38.5,85,29.87,7.0,Calm,Calm,-,N/A,,Overcast,0,2013-12-03 02:15:00
9:35 PM,44.1,38.3,80,29.88,10.0,Calm,Calm,-,N/A,,Overcast,0,2013-12-03 02:35:00
9:55 PM,43.3,38.3,82,29.88,10.0,Calm,Calm,-,N/A,,Overcast,0,2013-12-03 02:55:00
10:15 PM,43.2,38.5,84,29.88,10.0,Calm,Calm,-,N/A,,Overcast,0,2013-12-03 03:15:00
10:35 PM,42.8,39.0,86,29.87,10.0,Calm,Calm,-,N/A,,Overcast,0,2013-12-03 03:35:00
10:55 PM,43.0,38.3,84,29.88,10.0,Calm,Calm,-,N/A,,Overcast,0,2013-12-03 03:55:00
11:15 PM,42.1,38.3,86,29.88,10.0,Calm,Calm,-,N/A,,Overcast,0,2013-12-03 04:15:00
11:35 PM,41.7,37.8,86,29.88,10.0,Calm,Calm,-,N/A,,Overcast,0,2013-12-03 04:35:00
11:55 PM,40.1,36.9,88,29.88,10.0,Calm,Calm,-,N/A,,Scattered Clouds,0,2013-12-03 04:55:00